SAMSAT-IONOSPHERE (RS7*)

Last updated on Wed Sep 09 2026 00:03:15 GMT+0000 (Coordinated Universal Time)

1 61784U 24199BB 26251.56143447 .00074409 00000+0 73184-3 0 9990 2 61784 97.2776 129.8167 0005041 351.8053 8.3124 15.65760533150572
UTC large
Height (km)
Speed (km/s)
/
Latitude / Longitude
Inclination (degrees)
Orbital Period (minutes)
Azimuth
Elevation
Range (km)
Doppler Factor

Next 0 passes for location: London (51.5072 / 0.1276)

No passes found over London.
SAMSAT-IONOSPHERE (RS7*)